This is the latest recevied weather packets stored in our database for station/object EB2EMZ-14. If no packets are shown the sender has not sent any weather packets the latest 10 day(s).
| Time | Temp. | Humidity | Pressure | Rain* | Wind** | Luminosity | Snow |
|---|---|---|---|---|---|---|---|
| 1777551012 | 23.89° C | 53% | 1014.9 hPa | 0 mm | - | 0 W/m² | - |
| 1777550713 | 23.89° C | 55% | 1015 hPa | 0 mm | - | 0 W/m² | - |
| 1777550412 | 23.33° C | 56% | 1015.1 hPa | 0 mm | - | 0 W/m² | - |
| 1777550112 | 22.78° C | 56% | 1015.2 hPa | 0 mm | - | 0 W/m² | - |
| 1777549832 | 22.22° C | 59% | 1015.3 hPa | 0 mm | - | 0 W/m² | - |
| 1777549513 | 21.11° C | 60% | 1015.1 hPa | 0 mm | - | 0 W/m² | - |
| 1777549212 | 21.11° C | 60% | 1015.2 hPa | 0 mm | - | 0 W/m² | - |
| 1777548912 | 20.56° C | 59% | 1015.2 hPa | 0 mm | - | 0 W/m² | - |
| 1777548612 | 20.56° C | 59% | 1015.3 hPa | 0 mm | - | 0 W/m² | - |
| 1777548313 | 21.11° C | 58% | 1015.3 hPa | 0 mm | - | 0 W/m² | - |
| 1777548012 | 21.11° C | 58% | 1015.3 hPa | 0 mm | - | 0 W/m² | - |
| 1777547713 | 21.11° C | 58% | 1015.4 hPa | 0 mm | - | 0 W/m² | - |
| 1777547411 | 21.11° C | 59% | 1015.3 hPa | 0 mm | - | 0 W/m² | - |
| 1777547114 | 20.56° C | 59% | 1015.3 hPa | 0 mm | - | 0 W/m² | - |
| 1777546812 | 21.11° C | 59% | 1015.4 hPa | 0 mm | - | 0 W/m² | - |
| 1777546512 | 21.11° C | 59% | 1015.3 hPa | 0 mm | - | 0 W/m² | - |
| 1777546212 | 21.67° C | 59% | 1015.4 hPa | 0 mm | - | 0 W/m² | - |
| 1777545914 | 21.11° C | 60% | 1015.5 hPa | 0 mm | - | 0 W/m² | - |
| 1777545612 | 21.11° C | 60% | 1015.3 hPa | 0 mm | - | 0 W/m² | - |
| 1777545312 | 21.11° C | 61% | 1015.4 hPa | 0 mm | - | 0 W/m² | - |
| 1777545012 | 20.56° C | 60% | 1015.3 hPa | 0 mm | - | 0 W/m² | - |
| 1777544714 | 20.56° C | 60% | 1015.4 hPa | 0 mm | - | 0 W/m² | - |
| 1777544412 | 20° C | 58% | 1015.3 hPa | 0 mm | - | 0 W/m² | - |
| 1777544111 | 20.56° C | 58% | 1015.3 hPa | 0 mm | - | 0 W/m² | - |
| 1777543812 | 20° C | 61% | 1015.4 hPa | 0 mm | - | 0 W/m² | - |
* Rain latest hour (hover to see other rain measurements)
** Current wind speed in m/s (hover to see current wind gust speed)